Showing default

NOAA 4, 7529

Orbit data source: Space-Track

NOAA 4, 7529 is a payload satellite owned by NOAA (US) in SSO that was launched on Fri, 15 Nov 1974 UTC via a DELTA 2310 launch vehicle from the Air Force Western Test Range (AFWTR). Payload-class satellites include a variety of spacecraft equipped with specific instruments for various scientific and technological missions. These include communications satellites like Starlink; space stations such as the ISS; scientific satellites like the Hubble; Earth observation satellites from companies like Planet Labs, Umbra, and HawkEye 360; GPS; miniature CubeSats for education and research; and military/defense satellites.

Loading next visibility...
Identifier
7529, 1974-089A
Orbit
SSO
Country
Flag of USUS
Related business
Manufacturer
RCA/East Windsor
Mission
Non-operational spacecraft
Bus & Motor
TIROS M, Unknown motor
Mass
345 kg wet, 345 kg dry
Launch date (UTC)
1974-11-15 (52 years ago)
Launch vehicle
DELTA 2310
Launch site
Air Force Western Test Range (AFWTR)
Object type
Payload
Rocket body
Debris
Shape & HBR
Unknown
Radar Cross Section
Large (>1 m²)

Expand to show TLE details & history
Last TLE update: 19 hours ago

TLE from 19 hours ago
0 NOAA 4
1 07529U 74089A   26162.99333866 -.00000026  00000-0  13047-3 0  9992
2 07529 102.0008 175.7238 0008892 204.1176 212.7332 12.53203740358875
Epoch: 2026-06-11T23:50Z
TLE epoch observation values (Epoch: 2026-06-11T23:50:24.460Z)
Latitude
55.02332°
Longitude
-99.80636°
Altitude
1,465.876 km
Speed
7.132 km/s
True Right ascension
10h 32m 29s
True Declination
54° 52' 34"
Sunlit
Object was in daylight at epoch
Visualization orbit readout
Latitude
Unknown
Longitude
Unknown
Altitude
Unknown
Speed
Unknown
Apparent Right ascension
Unknown
Apparent Declination
Unknown
Sunlit
N/A
Visualization observer readout
Local Sidereal Time
05:14:18
Azimuth
Unknown
Elevation
Unknown
Doppler factor
Unknown
Orbital elements
Apogee altitude
1,455.64 km
Perigee altitude
1,441.721 km
Semi-major axis
7,826.818 km
Eccentricity
0.00089
Inclination
102.0008°
RAAN
175.7238°
Arg. of periapsis
204.1176°
True anomaly
212.67815°
Mean anomaly
212.7332°
Eccentric anomaly
212.70567°
Mean motion
3.13448 °/min
Orbital period
114.85 mins
BSTAR
0.00013047
Loading maneuver chart data...
Computing Atmospheric mass density...

Documentation

Showing up to 5 results
|